Simultaneous Nadir Overpasses (SNOs) Predictions

Prediction of SNOs between GOES-16 and FY3D Satellite Orbit:

Table of predicted SNOs for the next 14.0 days since TLE Epoch: 11/19/2022
Index Date Time (GOES-16) GOES-16 Lat,Lon FY3D Lat,Lon Distance(km) Time Diff (sec)
1 11/19/2022 06:43:52 0.01, -75.19 -0.74, -71.82 383.92 80
2 11/20/2022 19:03:48 -0.00, -75.20 -0.44, -77.27 235.39 80
3 11/21/2022 18:48:09 -0.01, -75.21 0.52, -72.83 270.96 80
4 11/23/2022 07:07:56 0.00, -75.21 0.69, -78.24 345.25 80
5 11/24/2022 06:52:18 0.01, -75.21 -0.33, -73.81 161.00 80
6 11/25/2022 19:12:13 -0.00, -75.22 -0.91, -79.25 458.42 80
7 11/26/2022 18:56:35 -0.01, -75.23 0.12, -74.82 48.03 80
8 11/29/2022 07:00:42 0.01, -75.25 0.11, -75.79 61.07 80
9 11/30/2022 06:39:43 0.01, -75.26 -0.86, -71.35 445.83 80
10 12/01/2022 19:02:19 -0.00, -75.28 -0.31, -76.80 172.14 80
11 12/02/2022 18:46:40 -0.00, -75.30 0.66, -72.36 335.49 80
